White Plains, CT

4:36 AM EST on November 17, 2019 (GMT -0500)
Westchester County

Weather History for KHPN - September, 2019

Change the Weather History Date:

Monday, September 9, 2019

  Actual Average Record
Temperature  
Mean Temperature 67 °F -  
Max Temperature 75 °F 74 °F 90 °F (2016)
Min Temperature 61 °F 57 °F 44 °F (1990)
Cooling Degree Days 2    
Growing Degree Days 17 (Base 50)    
Moisture  
Dew Point 55 °F    
Average Humidity 67    
Maximum Humidity 93    
Minimum Humidity 53    
Precipitation  
Precipitation 0.00 in - - ()
Sea Level Pressure  
Sea Level Pressure 30.23 in    
Wind  
Wind Speed 5 mph ()    
Max Wind Speed 8 mph    
Max Gust Speed -    
Visibility 10.0 miles    
Events      
Averages and records for this station are not official NWS values.
T = Trace of Precipitation, MM = Missing Value Source: Averaged Metar Reports

Daily Weather History Graph

Daily Weather History Graph

Search for Another Location

Airport or City:

Astronomy

Sep. 09, 2019 Rise Set
Actual Time 6:29 AM EDT 7:14 PM EDT
Civil Twilight 6:01 AM EDT 7:42 PM EDT
Nautical Twilight 5:28 AM EDT 8:15 PM EDT
Astronomical Twilight 4:54 AM EDT 8:49 PM EDT
Moon 5:10 PM EDT (9/9) 1:55 AM EDT (9/9)
Length of Visible Light 13h 41m
Length of Day
12h 45m
Waxing Gibbous, 83% of the Moon is Illuminated
Sep 9
Waxing Gibbous
Sep 14
Full
Sep 21
Last Quarter
Sep 28
New
Oct 5
First Quarter

Hourly Weather History & Observations

Time (EDT) Temp. Dew Point Humidity Pressure Visibility Wind Dir Wind Speed Gust Speed Precip Events Conditions
12:56 AM 64.9 °F 50.0 °F 58% 30.16 in 10.0 mi North 8.1 mph - N/A   Partly Cloudy
1:56 AM 64.0 °F 51.1 °F 63% 30.16 in 10.0 mi NE 5.8 mph - N/A   Clear
2:56 AM 64.0 °F 51.1 °F 63% 30.16 in 10.0 mi NE 3.5 mph - N/A   Mostly Cloudy
3:56 AM 63.0 °F 51.1 °F 65% 30.17 in 10.0 mi NNE 5.8 mph - N/A   Mostly Cloudy
4:56 AM 62.1 °F 51.1 °F 67% 30.18 in 10.0 mi NNE 6.9 mph - N/A   Scattered Clouds
5:56 AM 61.0 °F 51.1 °F 70% 30.19 in 10.0 mi NE 5.8 mph - N/A   Scattered Clouds
6:56 AM 61.0 °F 51.1 °F 70% 30.21 in 10.0 mi NE 4.6 mph - N/A   Scattered Clouds
7:56 AM 62.1 °F 50.0 °F 65% 30.22 in 10.0 mi NE 6.9 mph - N/A   Mostly Cloudy
8:56 AM 64.9 °F 52.0 °F 63% 30.23 in 10.0 mi ENE 5.8 mph - N/A   Partly Cloudy
9:56 AM 66.9 °F 53.1 °F 61% 30.25 in 10.0 mi East 5.8 mph - N/A   Scattered Clouds
10:56 AM 68.0 °F 53.1 °F 59% 30.26 in 10.0 mi ENE 3.5 mph - N/A   Mostly Cloudy
11:56 AM 70.0 °F 54.0 °F 57% 30.25 in 10.0 mi Variable 3.5 mph - N/A   Mostly Cloudy
12:56 PM 73.0 °F 55.0 °F 53% 30.24 in 10.0 mi NNE 6.9 mph - N/A   Partly Cloudy
1:56 PM 73.0 °F 55.9 °F 55% 30.23 in 10.0 mi ESE 5.8 mph - N/A   Scattered Clouds
2:56 PM 73.0 °F 57.0 °F 57% 30.21 in 10.0 mi ESE 8.1 mph - N/A   Mostly Cloudy
3:56 PM 73.0 °F 57.9 °F 59% 30.22 in 10.0 mi ESE 6.9 mph - N/A   Mostly Cloudy
4:56 PM 73.0 °F 59.0 °F 61% 30.23 in 10.0 mi ESE 8.1 mph - N/A   Scattered Clouds
5:56 PM 71.1 °F 57.9 °F 63% 30.24 in 10.0 mi East 6.9 mph - N/A   Scattered Clouds
6:56 PM 69.1 °F 57.9 °F 68% 30.24 in 10.0 mi Variable 4.6 mph - N/A   Mostly Cloudy
7:56 PM 66.9 °F 57.9 °F 73% 30.25 in 10.0 mi East 3.5 mph - N/A   Mostly Cloudy
8:56 PM 64.9 °F 59.0 °F 81% 30.27 in 10.0 mi Calm Calm - 0.00 in   Scattered Clouds
9:56 PM 66.0 °F 62.1 °F 87% 30.28 in 10.0 mi Variable 3.5 mph - N/A   Mostly Cloudy
10:56 PM 64.0 °F 61.0 °F 90% 30.28 in 10.0 mi Calm Calm - N/A   Scattered Clouds
11:56 PM 63.0 °F 61.0 °F 93% 30.28 in 10.0 mi Calm Calm - N/A   Scattered Clouds